| time (UTC) | temp C | wind direction | speed KPH | gust KPH | rain 1hr cm | rain 24hr cm | rain mn cm | humidity % | barometer mb |
| 20260906234559 | 34 | 119 | 6.4 | 9.7 | 0.00 | 0.00 | 0.00 | 48 | 1012.1 |
| 20260906234059 | 35 | 169 | 3.2 | 9.7 | 0.00 | 0.00 | 0.00 | 48 | 1012.4 |
| 20260906233558 | 35 | 145 | 3.2 | 6.4 | 0.00 | 0.00 | 0.00 | 47 | 1012.4 |
| 20260906233100 | 35 | 165 | 1.6 | 12.9 | 0.00 | 0.00 | 0.00 | 48 | 1012.4 |
| 20260906232058 | 34 | 137 | 6.4 | 14.5 | 0.00 | 0.00 | 0.00 | 49 | 1012.2 |
| 20260906231559 | 34 | 152 | 4.8 | 14.5 | 0.00 | 0.00 | 0.00 | 49 | 1012.1 |
| 20260906231059 | 33 | 130 | 9.7 | 12.9 | 0.00 | 0.00 | 0.00 | 49 | 1012.4 |
| 20260906225601 | 33 | 120 | 8.0 | 14.5 | 0.00 | 0.00 | 0.00 | 52 | 1012.5 |
| 20260906225059 | 33 | 131 | 6.4 | 16.1 | 0.00 | 0.00 | 0.00 | 52 | 1012.5 |
| 20260906224100 | 34 | 163 | 6.4 | 16.1 | 0.00 | 0.00 | 0.00 | 53 | 1012.7 |
| 20260906223600 | 34 | 182 | 3.2 | 11.3 | 0.00 | 0.00 | 0.00 | 53 | 1012.8 |
| 20260906223100 | 33 | 177 | 6.4 | 12.9 | 0.00 | 0.00 | 0.00 | 54 | 1012.9 |
| 20260906222600 | 33 | 158 | 3.2 | 12.9 | 0.00 | 0.00 | 0.00 | 56 | 1013.1 |
| 20260906222100 | 33 | 186 | 6.4 | 11.3 | 0.00 | 0.00 | 0.00 | 56 | 1012.9 |
| 20260906221600 | 33 | 153 | 6.4 | 12.9 | 0.00 | 0.00 | 0.00 | 55 | 1012.9 |
| 20260906220559 | 33 | 172 | 0.0 | 12.9 | 0.00 | 0.00 | 0.00 | 55 | 1013.1 |
| 20260906220100 | 33 | 164 | 4.8 | 12.9 | 0.00 | 0.00 | 0.00 | 54 | 1013.1 |
| 20260906215600 | 33 | 158 | 3.2 | 6.4 | 0.00 | 0.00 | 0.00 | 54 | 1013.1 |
| 20260906215100 | 33 | 182 | 0.0 | 6.4 | 0.00 | 0.00 | 0.00 | 53 | 1013.1 |
| 20260906214059 | 33 | 178 | 0.0 | 12.9 | 0.00 | 0.00 | 0.00 | 53 | 1012.9 |
| 20260906213559 | 33 | 179 | 1.6 | 12.9 | 0.00 | 0.00 | 0.00 | 55 | 1013.2 |
| 20260906213058 | 33 | 166 | 8.0 | 14.5 | 0.00 | 0.00 | 0.00 | 54 | 1013.2 |
| 20260906212559 | 33 | 157 | 6.4 | 14.5 | 0.00 | 0.00 | 0.00 | 54 | 1013.3 |
| 20260906212059 | 33 | 178 | 3.2 | 12.9 | 0.00 | 0.00 | 0.00 | 54 | 1013.4 |
| 20260906211601 | 33 | 139 | 4.8 | 16.1 | 0.00 | 0.00 | 0.00 | 53 | 1013.5 |
| 20260906211100 | 33 | 111 | 3.2 | 16.1 | 0.00 | 0.00 | 0.00 | 52 | 1013.2 |
| 20260906210601 | 33 | 169 | 4.8 | 14.5 | 0.00 | 0.00 | 0.00 | 53 | 1013.5 |
| 20260906210100 | 34 | 183 | 0.0 | 11.3 | 0.00 | 0.00 | 0.00 | 54 | 1013.5 |
| 20260906205600 | 33 | 190 | 1.6 | 16.1 | 0.00 | 0.00 | 0.00 | 56 | 1013.5 |
| 20260906205058 | 34 | 174 | 1.6 | 16.1 | 0.00 | 0.00 | 0.00 | 54 | 1013.6 |
| 20260906204559 | 34 | 218 | 6.4 | 14.5 | 0.00 | 0.00 | 0.00 | 55 | 1013.6 |
| 20260906204059 | 34 | 198 | 3.2 | 9.7 | 0.00 | 0.00 | 0.00 | 53 | 1013.7 |
| 20260906203558 | 34 | 187 | 4.8 | 9.7 | 0.00 | 0.00 | 0.00 | 53 | 1013.4 |
| 20260906203058 | 34 | 240 | 3.2 | 9.7 | 0.00 | 0.00 | 0.00 | 54 | 1013.9 |
| 20260906202558 | 34 | 168 | 3.2 | 14.5 | 0.00 | 0.00 | 0.00 | 54 | 1013.7 |
| 20260906202059 | 35 | 188 | 3.2 | 17.7 | 0.00 | 0.00 | 0.00 | 53 | 1013.8 |
| 20260906201559 | 34 | 150 | 1.6 | 17.7 | 0.00 | 0.00 | 0.00 | 55 | 1014.0 |
| 20260906201101 | 35 | 216 | 6.4 | 12.9 | 0.00 | 0.00 | 0.00 | 52 | 1013.7 |
| 20260906200559 | 34 | 182 | 3.2 | 16.1 | 0.00 | 0.00 | 0.00 | 55 | 1013.9 |
| 20260906195600 | 34 | 191 | 3.2 | 14.5 | 0.00 | 0.00 | 0.00 | 54 | 1014.0 |
| 20260906195100 | 35 | 197 | 4.8 | 12.9 | 0.00 | 0.00 | 0.00 | 51 | 1014.2 |
| 20260906194100 | 33 | 200 | 1.6 | 6.4 | 0.00 | 0.00 | 0.00 | 51 | 1014.4 |
| 20260906193601 | 33 | 197 | 1.6 | 12.9 | 0.00 | 0.00 | 0.00 | 50 | 1014.6 |
| 20260906193100 | 32 | 192 | 6.4 | 12.9 | 0.00 | 0.00 | 0.00 | 53 | 1014.4 |
| 20260906192059 | 32 | 207 | 4.8 | 6.4 | 0.00 | 0.00 | 0.00 | 52 | 1014.6 |
| 20260906191058 | 32 | 211 | 3.2 | 4.8 | 0.00 | 0.00 | 0.00 | 56 | 1014.6 |
| 20260906190558 | 32 | 191 | 3.2 | 4.8 | 0.00 | 0.00 | 0.00 | 57 | 1014.5 |
| 20260906190100 | 32 | 169 | 1.6 | 3.2 | 0.00 | 0.00 | 0.00 | 60 | 1015.0 |
| 20260906185600 | 31 | 165 | 1.6 | 4.8 | 0.00 | 0.00 | 0.00 | 62 | 1014.6 |
| 20260906184559 | 30 | 103 | 3.2 | 6.4 | 0.00 | 0.00 | 0.00 | 65 | 1015.3 |
| 20260906184100 | 30 | 141 | 1.6 | 6.4 | 0.00 | 0.00 | 0.00 | 66 | 1015.3 |
| 20260906183558 | 30 | 124 | 3.2 | 9.7 | 0.00 | 0.00 | 0.00 | 67 | 1015.5 |
| 20260906183059 | 30 | 55 | 8.0 | 9.7 | 0.00 | 0.00 | 0.00 | 65 | 1015.3 |
| 20260906182559 | 30 | 64 | 6.4 | 6.4 | 0.00 | 0.00 | 0.00 | 67 | 1015.5 |
| 20260906182058 | 30 | 89 | 6.4 | 11.3 | 0.00 | 0.00 | 0.00 | 69 | 1015.7 |
| 20260906181600 | 30 | 66 | 6.4 | 11.3 | 0.00 | 0.00 | 0.00 | 68 | 1015.7 |
| 20260906181100 | 30 | 79 | 4.8 | 11.3 | 0.00 | 0.00 | 0.00 | 66 | 1015.7 |
| 20260906180559 | 30 | 116 | 4.8 | 11.3 | 0.00 | 0.00 | 0.00 | 68 | 1015.8 |
| 20260906180100 | 30 | 53 | 4.8 | 6.4 | 0.00 | 0.00 | 0.00 | 67 | 1015.8 |
| 20260906175601 | 30 | 192 | 1.6 | 9.7 | 0.00 | 0.00 | 0.00 | 68 | 1015.9 |
| 20260906175059 | 29 | 32 | 4.8 | 9.7 | 0.00 | 0.00 | 0.00 | 69 | 1016.2 |
| 20260906174558 | 29 | 56 | 6.4 | 12.9 | 0.00 | 0.00 | 0.00 | 70 | 1016.0 |
| 20260906174058 | 29 | 54 | 9.7 | 14.5 | 0.00 | 0.00 | 0.00 | 70 | 1016.3 |
| 20260906173559 | 29 | 38 | 11.3 | 14.5 | 0.00 | 0.00 | 0.00 | 70 | 1016.2 |
| 20260906173100 | 29 | 57 | 6.4 | 14.5 | 0.00 | 0.00 | 0.00 | 71 | 1016.1 |
| 20260906172600 | 29 | 54 | 6.4 | 12.9 | 0.00 | 0.00 | 0.00 | 70 | 1016.5 |
| 20260906172100 | 30 | 127 | 6.4 | 11.3 | 0.00 | 0.00 | 0.00 | 70 | 1016.5 |
| 20260906171600 | 30 | 76 | 4.8 | 9.7 | 0.00 | 0.00 | 0.00 | 69 | 1016.5 |
| 20260906165536 | 30 | 131 | 1.6 | 4.8 | 0.00 | 0.00 | 0.00 | 66 | 1016.8 |
| 20260906165035 | 30 | 118 | 3.2 | 4.8 | 0.00 | 0.00 | 0.00 | 65 | 1016.8 |
| 20260906164535 | 30 | 158 | 1.6 | 3.2 | 0.00 | 0.00 | 0.00 | 65 | 1016.8 |
| 20260906164022 | 30 | 162 | 1.6 | 4.8 | 0.00 | 0.00 | 0.00 | 67 | 1016.7 |
| 20260906163523 | 29 | 166 | 0.0 | 4.8 | 0.00 | 0.00 | 0.00 | 69 | 1016.9 |
| 20260906163023 | 29 | 183 | 1.6 | 6.4 | 0.00 | 0.00 | 0.00 | 72 | 1016.8 |
| 20260906162523 | 28 | 199 | 4.8 | 6.4 | 0.00 | 0.00 | 0.00 | 71 | 1016.9 |
| 20260906162023 | 28 | 242 | 6.4 | 12.9 | 0.00 | 0.00 | 0.00 | 73 | 1016.8 |
| 20260906160511 | 28 | 195 | 3.2 | 4.8 | 0.00 | 0.00 | 0.00 | 75 | 1016.8 |
| 20260906160010 | 28 | 192 | 1.6 | 9.7 | 0.00 | 0.00 | 0.00 | 74 | 1016.5 |
| 20260906155512 | 28 | 131 | 3.2 | 9.7 | 0.00 | 0.00 | 0.00 | 73 | 1016.6 |
| 20260906154510 | 27 | 57 | 4.8 | 9.7 | 0.00 | 0.00 | 0.00 | 76 | 1016.5 |
| 20260906154012 | 28 | 112 | 3.2 | 9.7 | 0.00 | 0.00 | 0.00 | 76 | 1016.6 |
| 20260906153510 | 28 | 169 | 3.2 | 4.8 | 0.00 | 0.00 | 0.00 | 76 | 1016.6 |
| 20260906153011 | 27 | 102 | 1.6 | 4.8 | 0.00 | 0.00 | 0.00 | 75 | 1016.4 |
| 20260906152012 | 27 | 182 | 1.6 | 4.8 | 0.00 | 0.00 | 0.00 | 78 | 1016.5 |
| 20260906151510 | 27 | 144 | 4.8 | 4.8 | 0.00 | 0.00 | 0.00 | 79 | 1016.4 |
| 20260906151012 | 27 | 63 | 1.6 | 4.8 | 0.00 | 0.00 | 0.00 | 79 | 1016.4 |
| 20260906150012 | 27 | 78 | 3.2 | 4.8 | 0.00 | 0.00 | 0.00 | 83 | 1016.2 |
| 20260906145513 | 27 | 189 | 3.2 | 3.2 | 0.00 | 0.00 | 0.00 | 84 | 1016.4 |
| 20260906145012 | 27 | 188 | 0.0 | 1.6 | 0.00 | 0.00 | 0.00 | 84 | 1016.3 |
| 20260906144512 | 27 | 188 | 0.0 | 1.6 | 0.00 | 0.00 | 0.00 | 84 | 1016.2 |
| 20260906144012 | 27 | 188 | 0.0 | 1.6 | 0.00 | 0.00 | 0.00 | 84 | 1016.0 |
| 20260906143512 | 26 | 187 | 0.0 | 3.2 | 0.00 | 0.00 | 0.00 | 86 | 1016.3 |
| 20260906143012 | 26 | 187 | 1.6 | 3.2 | 0.00 | 0.00 | 0.00 | 86 | 1016.2 |
| 20260906142512 | 26 | 195 | 1.6 | 3.2 | 0.00 | 0.00 | 0.00 | 85 | 1016.0 |
| 20260906142012 | 26 | 196 | 0.0 | 3.2 | 0.00 | 0.00 | 0.00 | 84 | 1016.2 |
| 20260906141512 | 26 | 196 | 1.6 | 3.2 | 0.00 | 0.00 | 0.00 | 84 | 1016.0 |
| 20260906140959 | 26 | 193 | 1.6 | 3.2 | 0.00 | 0.00 | 0.00 | 82 | 1015.9 |
| 20260906140458 | 26 | 192 | 0.0 | 1.6 | 0.00 | 0.00 | 0.00 | 83 | 1015.8 |
| 20260906135958 | 26 | 182 | 1.6 | 1.6 | 0.00 | 0.00 | 0.00 | 82 | 1015.7 |
| 20260906135459 | 26 | 185 | 0.0 | 1.6 | 0.00 | 0.00 | 0.00 | 82 | 1015.7 |
| 20260906134958 | 26 | 191 | 0.0 | 0.0 | 0.00 | 0.00 | 0.00 | 83 | 1015.7 |
| 20260906134459 | 26 | 191 | 0.0 | 1.6 | 0.00 | 0.00 | 0.00 | 84 | 1015.7 |
| 20260906133959 | 26 | 191 | 0.0 | 1.6 | 0.00 | 0.00 | 0.00 | 84 | 1015.4 |
| 20260906133459 | 26 | 191 | 0.0 | 1.6 | 0.00 | 0.00 | 0.00 | 84 | 1015.4 |
| 20260906133000 | 26 | 191 | 0.0 | 0.0 | 0.00 | 0.00 | 0.00 | 84 | 1015.4 |
| 20260906132500 | 26 | 191 | 0.0 | 0.0 | 0.00 | 0.00 | 0.00 | 85 | 1015.3 |
| 20260906131959 | 25 | 191 | 0.0 | 1.6 | 0.00 | 0.00 | 0.00 | 87 | 1015.1 |
| 20260906131500 | 25 | 191 | 0.0 | 1.6 | 0.00 | 0.00 | 0.00 | 87 | 1015.0 |
| 20260906130959 | 25 | 191 | 0.0 | 1.6 | 0.00 | 0.00 | 0.00 | 87 | 1015.1 |
| 20260906125959 | 25 | 191 | 1.6 | 1.6 | 0.00 | 0.00 | 0.00 | 87 | 1015.0 |
| 20260906125459 | 25 | 191 | 0.0 | 1.6 | 0.00 | 0.00 | 0.00 | 86 | 1015.2 |
| 20260906124947 | 25 | 192 | 0.0 | 1.6 | 0.00 | 0.00 | 0.00 | 86 | 1015.1 |
| 20260906124446 | 25 | 192 | 0.0 | 1.6 | 0.00 | 0.00 | 0.00 | 86 | 1014.6 |
| 20260906123948 | 25 | 193 | 0.0 | 1.6 | 0.00 | 0.00 | 0.00 | 86 | 1014.9 |
| 20260906123446 | 25 | 193 | 0.0 | 1.6 | 0.00 | 0.00 | 0.00 | 86 | 1014.9 |
| 20260906122447 | 25 | 193 | 0.0 | 1.6 | 0.00 | 0.00 | 0.00 | 85 | 1014.5 |
| 20260906121948 | 24 | 193 | 0.0 | 1.6 | 0.00 | 0.00 | 0.00 | 84 | 1014.4 |
| 20260906121448 | 24 | 193 | 0.0 | 3.2 | 0.00 | 0.00 | 0.00 | 83 | 1014.3 |
| 20260906120446 | 25 | 193 | 1.6 | 3.2 | 0.00 | 0.00 | 0.00 | 83 | 1014.4 |
| 20260906115946 | 25 | 193 | 0.0 | 3.2 | 0.00 | 0.00 | 0.00 | 83 | 1014.3 |
| 20260906115446 | 25 | 193 | 1.6 | 3.2 | 0.00 | 0.00 | 0.00 | 83 | 1014.1 |
| 20260906113946 | 25 | 191 | 0.0 | 1.6 | 0.00 | 0.00 | 0.00 | 83 | 1014.1 |
| 20260906113448 | 25 | 192 | 0.0 | 3.2 | 0.00 | 0.00 | 0.00 | 83 | 1013.9 |
| 20260906112946 | 25 | 192 | 0.0 | 4.8 | 0.00 | 0.00 | 0.00 | 83 | 1013.9 |
| 20260906112447 | 25 | 202 | 3.2 | 4.8 | 0.00 | 0.00 | 0.00 | 84 | 1013.8 |
| 20260906111946 | 25 | 195 | 1.6 | 3.2 | 0.00 | 0.00 | 0.00 | 84 | 1013.6 |
| 20260906111447 | 25 | 201 | 1.6 | 3.2 | 0.00 | 0.00 | 0.00 | 83 | 1013.6 |
| 20260906110947 | 25 | 189 | 0.0 | 3.2 | 0.00 | 0.00 | 0.00 | 81 | 1013.6 |
| 20260906110447 | 25 | 186 | 1.6 | 3.2 | 0.00 | 0.00 | 0.00 | 81 | 1013.6 |
| 20260906105947 | 25 | 190 | 0.0 | 1.6 | 0.00 | 0.00 | 0.00 | 81 | 1013.9 |
| 20260906105446 | 25 | 166 | 0.0 | 3.2 | 0.00 | 0.00 | 0.00 | 81 | 1013.7 |
| 20260906104447 | 26 | 166 | 1.6 | 1.6 | 0.00 | 0.00 | 0.00 | 82 | 1013.4 |
| 20260906103947 | 26 | 166 | 1.6 | 1.6 | 0.00 | 0.00 | 0.00 | 81 | 1013.4 |
| 20260906103447 | 26 | 165 | 0.0 | 3.2 | 0.00 | 0.00 | 0.00 | 78 | 1013.5 |
| 20260906102946 | 26 | 165 | 1.6 | 3.2 | 0.00 | 0.00 | 0.00 | 78 | 1013.6 |
| 20260906102446 | 26 | 171 | 3.2 | 3.2 | 0.00 | 0.00 | 0.00 | 78 | 1013.7 |
| 20260906101947 | 26 | 177 | 0.0 | 1.6 | 0.00 | 0.00 | 0.00 | 78 | 1013.7 |
| 20260906101447 | 26 | 177 | 0.0 | 3.2 | 0.00 | 0.00 | 0.00 | 78 | 1013.6 |
| 20260906100946 | 26 | 167 | 1.6 | 3.2 | 0.00 | 0.00 | 0.00 | 77 | 1013.5 |
| 20260906100447 | 26 | 166 | 1.6 | 3.2 | 0.00 | 0.00 | 0.00 | 78 | 1013.5 |
| 20260906095447 | 26 | 182 | 1.6 | 3.2 | 0.00 | 0.00 | 0.00 | 79 | 1013.3 |
| 20260906094446 | 26 | 190 | 1.6 | 1.6 | 0.00 | 0.00 | 0.00 | 77 | 1013.6 |
| 20260906093947 | 26 | 186 | 0.0 | 1.6 | 0.00 | 0.00 | 0.00 | 77 | 1013.4 |
| 20260906093435 | 26 | 186 | 0.0 | 1.6 | 0.00 | 0.00 | 0.00 | 77 | 1013.7 |
| 20260906092434 | 26 | 182 | 0.0 | 0.0 | 0.00 | 0.00 | 0.00 | 77 | 1013.5 |
| 20260906091935 | 26 | 182 | 0.0 | 1.6 | 0.00 | 0.00 | 0.00 | 77 | 1013.4 |
| 20260906091435 | 26 | 182 | 0.0 | 1.6 | 0.00 | 0.00 | 0.00 | 77 | 1013.7 |
| 20260906090934 | 26 | 182 | 0.0 | 1.6 | 0.00 | 0.00 | 0.00 | 77 | 1013.6 |
| 20260906090433 | 26 | 182 | 0.0 | 0.0 | 0.00 | 0.00 | 0.00 | 76 | 1013.6 |
| 20260906085922 | 26 | 182 | 0.0 | 1.6 | 0.00 | 0.00 | 0.00 | 76 | 1013.4 |
| 20260906085422 | 26 | 181 | 0.0 | 3.2 | 0.00 | 0.00 | 0.00 | 76 | 1013.3 |
| 20260906084921 | 27 | 181 | 1.6 | 4.8 | 0.00 | 0.00 | 0.00 | 75 | 1013.5 |
| 20260906084422 | 27 | 169 | 3.2 | 4.8 | 0.00 | 0.00 | 0.00 | 76 | 1013.4 |
| 20260906083921 | 26 | 159 | 3.2 | 3.2 | 0.00 | 0.00 | 0.00 | 76 | 1013.5 |
| 20260906082922 | 26 | 182 | 0.0 | 1.6 | 0.00 | 0.00 | 0.00 | 76 | 1013.4 |
| 20260906082409 | 26 | 180 | 1.6 | 1.6 | 0.00 | 0.00 | 0.00 | 76 | 1013.3 |
| 20260906081909 | 27 | 183 | 0.0 | 1.6 | 0.00 | 0.00 | 0.00 | 76 | 1013.6 |
| 20260906080910 | 27 | 179 | 0.0 | 4.8 | 0.00 | 0.00 | 0.00 | 76 | 1013.5 |
| 20260906080410 | 27 | 180 | 0.0 | 3.2 | 0.00 | 0.00 | 0.00 | 76 | 1013.6 |
| 20260906075910 | 27 | 178 | 0.0 | 3.2 | 0.00 | 0.00 | 0.00 | 76 | 1013.7 |
| 20260906075409 | 27 | 178 | 1.6 | 3.2 | 0.00 | 0.00 | 0.00 | 76 | 1013.8 |
| 20260906074910 | 27 | 177 | 1.6 | 3.2 | 0.00 | 0.00 | 0.00 | 76 | 1013.9 |
| 20260906074409 | 27 | 177 | 1.6 | 3.2 | 0.00 | 0.00 | 0.00 | 76 | 1013.7 |
| 20260906073910 | 27 | 173 | 1.6 | 3.2 | 0.00 | 0.00 | 0.00 | 75 | 1013.8 |
| 20260906073410 | 27 | 177 | 1.6 | 3.2 | 0.00 | 0.00 | 0.00 | 75 | 1013.8 |
| 20260906071909 | 27 | 172 | 1.6 | 3.2 | 0.00 | 0.00 | 0.00 | 75 | 1014.1 |
| 20260906071409 | 27 | 173 | 1.6 | 3.2 | 0.00 | 0.00 | 0.00 | 75 | 1013.9 |
| 20260906070910 | 27 | 179 | 1.6 | 3.2 | 0.00 | 0.00 | 0.00 | 75 | 1014.2 |
| 20260906070410 | 27 | 183 | 0.0 | 6.4 | 0.00 | 0.00 | 0.00 | 74 | 1014.0 |
| 20260906065910 | 28 | 184 | 3.2 | 6.4 | 0.00 | 0.00 | 0.00 | 74 | 1014.0 |
| 20260906065410 | 28 | 179 | 1.6 | 4.8 | 0.00 | 0.00 | 0.00 | 73 | 1014.5 |
| 20260906064911 | 28 | 175 | 3.2 | 4.8 | 0.00 | 0.00 | 0.00 | 73 | 1014.4 |
| 20260906063909 | 28 | 165 | 3.2 | 4.8 | 0.00 | 0.00 | 0.00 | 73 | 1014.2 |
| 20260906063410 | 28 | 187 | 0.0 | 4.8 | 0.00 | 0.00 | 0.00 | 72 | 1014.3 |
| 20260906062910 | 28 | 184 | 0.0 | 4.8 | 0.00 | 0.00 | 0.00 | 71 | 1014.4 |
| 20260906061910 | 28 | 181 | 3.2 | 4.8 | 0.00 | 0.00 | 0.00 | 70 | 1014.3 |
| 20260906060909 | 28 | 174 | 1.6 | 4.8 | 0.00 | 0.00 | 0.00 | 70 | 1014.4 |
| 20260906060409 | 28 | 179 | 0.0 | 6.4 | 0.00 | 0.00 | 0.00 | 69 | 1014.5 |
| 20260906055909 | 28 | 186 | 3.2 | 6.4 | 0.00 | 0.00 | 0.00 | 70 | 1014.5 |
| 20260906055409 | 29 | 164 | 1.6 | 6.4 | 0.00 | 0.00 | 0.00 | 69 | 1014.4 |
| 20260906054411 | 28 | 181 | 1.6 | 4.8 | 0.00 | 0.00 | 0.00 | 70 | 1014.4 |
| 20260906053909 | 29 | 176 | 1.6 | 9.7 | 0.00 | 0.00 | 0.00 | 70 | 1014.6 |
| 20260906053409 | 29 | 170 | 3.2 | 9.7 | 0.00 | 0.00 | 0.00 | 69 | 1014.4 |
| 20260906052910 | 29 | 166 | 3.2 | 4.8 | 0.00 | 0.00 | 0.00 | 69 | 1014.4 |
| 20260906052410 | 29 | 178 | 3.2 | 4.8 | 0.00 | 0.00 | 0.00 | 69 | 1014.3 |
| 20260906051409 | 29 | 182 | 0.0 | 9.7 | 0.00 | 0.00 | 0.00 | 68 | 1014.2 |
| 20260906050910 | 30 | 166 | 3.2 | 9.7 | 0.00 | 0.00 | 0.00 | 67 | 1014.4 |
| 20260906050410 | 30 | 185 | 3.2 | 4.8 | 0.00 | 0.00 | 0.00 | 67 | 1014.4 |
| 20260906045409 | 30 | 177 | 3.2 | 11.3 | 0.00 | 0.00 | 0.00 | 66 | 1014.4 |
| 20260906044410 | 30 | 147 | 3.2 | 12.9 | 0.00 | 0.00 | 0.00 | 65 | 1014.3 |
| 20260906043910 | 30 | 155 | 4.8 | 11.3 | 0.00 | 0.00 | 0.00 | 65 | 1014.0 |
| 20260906042910 | 30 | 164 | 3.2 | 14.5 | 0.00 | 0.00 | 0.00 | 65 | 1014.4 |
| 20260906042410 | 30 | 132 | 3.2 | 11.3 | 0.00 | 0.00 | 0.00 | 65 | 1014.4 |
| 20260906041909 | 30 | 128 | 4.8 | 9.7 | 0.00 | 0.00 | 0.00 | 64 | 1014.2 |
| 20260906040909 | 30 | 176 | 3.2 | 11.3 | 0.00 | 0.00 | 0.00 | 63 | 1014.3 |
| 20260906040410 | 30 | 169 | 3.2 | 6.4 | 0.00 | 0.00 | 0.00 | 62 | 1014.4 |
| 20260906035909 | 30 | 173 | 1.6 | 9.7 | 0.00 | 0.00 | 0.00 | 62 | 1014.3 |
| 20260906034409 | 29 | 166 | 3.2 | 4.8 | 0.00 | 0.00 | 0.00 | 61 | 1014.1 |
| 20260906033909 | 29 | 178 | 3.2 | 3.2 | 0.00 | 0.00 | 0.00 | 61 | 1014.0 |
| 20260906033410 | 28 | 174 | 3.2 | 3.2 | 0.00 | 0.00 | 0.00 | 61 | 1014.1 |
| 20260906032910 | 28 | 178 | 1.6 | 1.6 | 0.00 | 0.00 | 0.00 | 62 | 1014.1 |
| 20260906032409 | 29 | 178 | 0.0 | 1.6 | 0.00 | 0.00 | 0.00 | 60 | 1014.1 |
| 20260906031910 | 29 | 178 | 0.0 | 0.0 | 0.00 | 0.00 | 0.00 | 61 | 1013.9 |
| 20260906031410 | 29 | 178 | 0.0 | 0.0 | 0.00 | 0.00 | 0.00 | 59 | 1013.8 |
| 20260906030911 | 29 | 178 | 0.0 | 0.0 | 0.00 | 0.00 | 0.00 | 59 | 1013.4 |
| 20260906030410 | 29 | 178 | 0.0 | 1.6 | 0.00 | 0.00 | 0.00 | 58 | 1013.6 |
| 20260906025910 | 30 | 179 | 0.0 | 3.2 | 0.00 | 0.00 | 0.00 | 58 | 1013.5 |
| 20260906025410 | 30 | 179 | 1.6 | 6.4 | 0.00 | 0.00 | 0.00 | 57 | 1013.4 |
| 20260906024410 | 30 | 156 | 1.6 | 3.2 | 0.00 | 0.00 | 0.00 | 56 | 1013.1 |
| 20260906023911 | 30 | 160 | 1.6 | 3.2 | 0.00 | 0.00 | 0.00 | 56 | 1012.8 |
| 20260906022910 | 30 | 161 | 1.6 | 4.8 | 0.00 | 0.00 | 0.00 | 55 | 1012.8 |
| 20260906022411 | 30 | 164 | 3.2 | 4.8 | 0.00 | 0.00 | 0.00 | 56 | 1012.4 |
| 20260906021910 | 30 | 162 | 1.6 | 3.2 | 0.00 | 0.00 | 0.00 | 57 | 1012.3 |
| 20260906021409 | 30 | 183 | 1.6 | 1.6 | 0.00 | 0.00 | 0.00 | 55 | 1012.5 |
| 20260906020910 | 30 | 177 | 0.0 | 0.0 | 0.00 | 0.00 | 0.00 | 54 | 1012.2 |
| 20260906015409 | 31 | 176 | 0.0 | 0.0 | 0.00 | 0.00 | 0.00 | 53 | 1012.1 |
| 20260906014908 | 31 | 176 | 0.0 | 0.0 | 0.00 | 0.00 | 0.00 | 53 | 1012.0 |
| 20260906014409 | 31 | 177 | 0.0 | 0.0 | 0.00 | 0.00 | 0.00 | 53 | 1011.8 |
| 20260906013909 | 31 | 177 | 0.0 | 0.0 | 0.00 | 0.00 | 0.00 | 52 | 1012.1 |
| 20260906013409 | 31 | 177 | 0.0 | 1.6 | 0.00 | 0.00 | 0.00 | 51 | 1012.1 |
| 20260906012909 | 32 | 176 | 0.0 | 3.2 | 0.00 | 0.00 | 0.00 | 51 | 1011.9 |
| 20260906012410 | 32 | 176 | 1.6 | 3.2 | 0.00 | 0.00 | 0.00 | 49 | 1011.6 |
| 20260906010909 | 32 | 176 | 0.0 | 1.6 | 0.00 | 0.00 | 0.00 | 47 | 1011.9 |
| 20260906010409 | 33 | 176 | 1.6 | 3.2 | 0.00 | 0.00 | 0.00 | 47 | 1012.0 |
| 20260906005908 | 33 | 171 | 1.6 | 3.2 | 0.00 | 0.00 | 0.00 | 46 | 1011.8 |
| 20260906005408 | 33 | 169 | 0.0 | 4.8 | 0.00 | 0.00 | 0.00 | 45 | 1011.8 |
| 20260906004907 | 34 | 172 | 0.0 | 4.8 | 0.00 | 0.00 | 0.00 | 44 | 1011.9 |
| 20260906004407 | 34 | 177 | 0.0 | 9.7 | 0.00 | 0.00 | 0.00 | 44 | 1011.7 |
| 20260906003408 | 35 | 118 | 3.2 | 11.3 | 0.00 | 0.00 | 0.00 | 42 | 1011.8 |
| 20260906002907 | 35 | 153 | 3.2 | 11.3 | 0.00 | 0.00 | 0.00 | 42 | 1011.7 |
| 20260906002408 | 35 | 161 | 4.8 | 11.3 | 0.00 | 0.00 | 0.00 | 42 | 1011.5 |
| 20260906001909 | 35 | 173 | 3.2 | 14.5 | 0.00 | 0.00 | 0.00 | 41 | 1011.6 |
| 20260906001408 | 35 | 178 | 3.2 | 14.5 | 0.00 | 0.00 | 0.00 | 41 | 1011.6 |
| 20260906000907 | 35 | 174 | 4.8 | 11.3 | 0.00 | 0.00 | 0.00 | 41 | 1011.7 |
| 20260906000410 | 36 | 188 | 3.2 | 11.3 | 0.00 | 0.00 | 0.00 | 41 | 1011.6 |
| 20260905235907 | 36 | 171 | 6.4 | 11.3 | 0.00 | 0.00 | 0.00 | 41 | 1011.5 |
| 20260905235408 | 36 | 136 | 3.2 | 11.3 | 0.00 | 0.00 | 0.00 | 42 | 1011.7 |